Change the Weather History Date:

Saturday, November 17, 2012

  Actual Average (KGVL) Record (KGVL)
Temperature  
Mean Temperature 47 °F 52 °F  
Max Temperature 59 °F 61 °F 81 °F (1958)
Min Temperature 35 °F 43 °F 22 °F (1936)
Degree Days  
Heating Degree Days 18 13  
Month to date heating degree days 179  
Since 1 July heating degree days 337  
Moisture  
Dew Point 18 °F    
Average Humidity 42    
Maximum Humidity 93    
Minimum Humidity 8    
Precipitation  
Precipitation 0.00 in 0.15 in 2.02 in (2014)
Month to date precipitation 2.10  
Year to date precipitation 47.11  
Sea Level Pressure  
Sea Level Pressure 30.38 in    
Wind  
Wind Speed 2 mph ()    
Max Wind Speed 12 mph    
Max Gust Speed 17 mph    
Visibility 10.0 miles    
Events      
T = Trace of Precipitation, MM = Missing Value Source: Averaged Metar Reports

Daily Weather History Graph

Daily Weather History Graph

Search for Another Location

Airport or City:

Trip Planner

Search our weather history database for the weather conditions in past years. The results will help you decide how hot, cold, wet, or windy it might be!

Date:

Astronomy

Nov. 17, 2012 Rise Set
Actual Time 7:09 AM EST 5:28 PM EST
Civil Twilight 6:42 AM EST 5:55 PM EST
Nautical Twilight 6:12 AM EST 6:26 PM EST
Astronomical Twilight 5:42 AM EST 6:55 PM EST
Moon 10:53 AM EST (11/17) 9:36 PM EST (11/17)
Length of Visible Light 11h 12m
Length of Day
10h 19m
Waxing Crescent, 20% of the Moon is Illuminated
Nov 17
Waxing Crescent
Nov 20
First Quarter
Nov 28
Full
Dec 6
Last Quarter
Dec 13
New

Hourly Weather History & Observations

Time (EST) Temp. Windchill Dew Point Humidity Pressure Visibility Wind Dir Wind Speed Gust Speed Precip Events Conditions
12:15 AM 37.4 °F - 32.0 °F 81% 30.35 in 10.0 mi Calm Calm - N/A   Clear
12:35 AM 37.4 °F - 32.0 °F 81% 30.35 in 10.0 mi Calm Calm - N/A   Clear
12:55 AM 37.4 °F - 33.8 °F 87% 30.35 in 10.0 mi Calm Calm - N/A   Clear
1:15 AM 37.4 °F - 33.8 °F 87% 30.35 in 10.0 mi Calm Calm - N/A   Clear
1:35 AM 37.4 °F - 32.0 °F 81% 30.36 in 10.0 mi Calm Calm - N/A   Clear
1:55 AM 35.6 °F - 33.8 °F 93% 30.36 in 10.0 mi Calm Calm - N/A   Clear
2:15 AM 35.6 °F - 33.8 °F 93% 30.36 in 10.0 mi Calm Calm - N/A   Clear
2:35 AM 35.6 °F - 33.8 °F 93% 30.36 in 10.0 mi Calm Calm - N/A   Clear
2:55 AM 35.6 °F - 32.0 °F 87% 30.36 in 10.0 mi Calm Calm - N/A   Clear
3:15 AM 37.4 °F - 32.0 °F 81% 30.37 in 10.0 mi Calm Calm - N/A   Clear
3:35 AM 37.4 °F - 30.2 °F 75% 30.37 in 10.0 mi Calm Calm - N/A   Clear
3:55 AM 37.4 °F - 30.2 °F 75% 30.37 in 10.0 mi Calm Calm - N/A   Clear
4:15 AM 37.4 °F - 28.4 °F 70% 30.37 in 10.0 mi Calm Calm - N/A   Clear
4:35 AM 37.4 °F - 28.4 °F 70% 30.37 in 10.0 mi Calm Calm - N/A   Clear
4:55 AM 39.2 °F - 28.4 °F 65% 30.38 in 10.0 mi Calm Calm - N/A   Clear
5:15 AM 37.4 °F - 28.4 °F 70% 30.38 in 10.0 mi Calm Calm - N/A   Clear
5:35 AM 37.4 °F - 28.4 °F 70% 30.38 in 10.0 mi Calm Calm - N/A   Clear
5:55 AM 37.4 °F - 28.4 °F 70% 30.38 in 10.0 mi Calm Calm - N/A   Clear
6:15 AM 37.4 °F 34.9 °F 28.4 °F 70% 30.38 in 10.0 mi ENE 3.5 mph - N/A   Clear
6:35 AM 37.4 °F - 26.6 °F 65% 30.39 in 10.0 mi Calm Calm - N/A   Clear
6:55 AM 37.4 °F 34.9 °F 26.6 °F 65% 30.40 in 10.0 mi ENE 3.5 mph - N/A   Clear
7:15 AM 37.4 °F 34.9 °F 26.6 °F 65% 30.40 in 10.0 mi ENE 3.5 mph - N/A   Clear
7:35 AM 39.2 °F 35.9 °F 24.8 °F 56% 30.41 in 10.0 mi East 4.6 mph - N/A   Clear
7:55 AM 41.0 °F 39.0 °F 23.0 °F 49% 30.41 in 10.0 mi ENE 3.5 mph - N/A   Clear
8:15 AM 41.0 °F 39.0 °F 23.0 °F 49% 30.42 in 10.0 mi ENE 3.5 mph - N/A   Clear
8:35 AM 42.8 °F 40.1 °F 23.0 °F 46% 30.42 in 10.0 mi ENE 4.6 mph - N/A   Clear
8:55 AM 44.6 °F 42.2 °F 23.0 °F 43% 30.43 in 10.0 mi ENE 4.6 mph - N/A   Clear
9:15 AM 46.4 °F 44.3 °F 21.2 °F 37% 30.43 in 10.0 mi East 4.6 mph - N/A   Clear
9:35 AM 46.4 °F 41.5 °F 19.4 °F 34% 30.43 in 10.0 mi East 10.4 mph 17.3 mph N/A   Clear
9:55 AM 48.2 °F - 19.4 °F 32% 30.43 in 10.0 mi East 9.2 mph 16.1 mph N/A   Clear
10:15 AM 50.0 °F - 19.4 °F 30% 30.44 in 10.0 mi ENE 11.5 mph 17.3 mph N/A   Clear
10:35 AM 50.0 °F - 17.6 °F 28% 30.43 in 10.0 mi East 9.2 mph 17.3 mph N/A   Clear
10:55 AM 51.8 °F - 17.6 °F 26% 30.43 in 10.0 mi East 4.6 mph - N/A   Clear
11:15 AM 51.8 °F - 14.0 °F 22% 30.43 in 10.0 mi East 6.9 mph - N/A   Clear
11:35 AM 53.6 °F - 14.0 °F 21% 30.42 in 10.0 mi ENE 4.6 mph - N/A   Clear
12:55 PM 55.4 °F - 8.6 °F 15% 30.38 in 10.0 mi East 6.9 mph - N/A   Clear
1:15 PM 57.2 °F - 10.4 °F 16% 30.37 in 10.0 mi East 4.6 mph - N/A   Clear
1:35 PM 59.0 °F - 8.6 °F 14% 30.36 in 10.0 mi East 9.2 mph - N/A   Clear
1:55 PM 59.0 °F - 6.8 °F 13% 30.36 in 10.0 mi NE 4.6 mph - N/A   Clear
2:15 PM 59.0 °F - 5.0 °F 12% 30.36 in 10.0 mi East 5.8 mph - N/A   Clear
2:35 PM 59.0 °F - 3.2 °F 11% 30.35 in 10.0 mi East 5.8 mph - N/A   Clear
2:55 PM 59.0 °F - 1.4 °F 10% 30.34 in 10.0 mi East 6.9 mph - N/A   Clear
3:15 PM 59.0 °F - -0.4 °F 9% 30.34 in 10.0 mi East 4.6 mph - N/A   Clear
3:35 PM 59.0 °F - -2.2 °F 8% 30.34 in 10.0 mi East 3.5 mph - N/A   Clear
3:55 PM 59.0 °F - -4.0 °F 8% 30.34 in 10.0 mi ENE 5.8 mph - N/A   Clear
4:15 PM 59.0 °F - -4.0 °F 8% 30.34 in 10.0 mi Calm Calm - N/A   Clear
4:35 PM 59.0 °F - -4.0 °F 8% 30.35 in 10.0 mi Calm Calm - N/A   Clear
4:55 PM 57.2 °F - 1.4 °F 10% 30.35 in 10.0 mi East 3.5 mph - N/A   Clear
5:15 PM 55.4 °F - 3.2 °F 12% 30.36 in 10.0 mi East 3.5 mph - N/A   Clear
5:35 PM 53.6 °F - 5.0 °F 14% 30.36 in 10.0 mi Calm Calm - N/A   Clear
5:55 PM 51.8 °F - 8.6 °F 18% 30.37 in 10.0 mi Calm Calm - N/A   Clear
6:15 PM 50.0 °F - 12.2 °F 22% 30.37 in 10.0 mi Calm Calm - N/A   Clear
6:35 PM 48.2 °F - 17.6 °F 30% 30.37 in 10.0 mi Calm Calm - N/A   Clear
6:55 PM 50.0 °F - 14.0 °F 24% 30.37 in 10.0 mi Calm Calm - N/A   Clear
7:15 PM 50.0 °F - 12.2 °F 22% 30.38 in 10.0 mi Calm Calm - N/A   Clear
7:35 PM 50.0 °F - 12.2 °F 22% 30.38 in 10.0 mi Calm Calm - N/A   Clear
7:55 PM 50.0 °F - 12.2 °F 22% 30.38 in 10.0 mi Calm Calm - N/A   Clear
8:15 PM 50.0 °F - 12.2 °F 22% 30.39 in 10.0 mi East 3.5 mph - N/A   Clear
8:35 PM 50.0 °F - 12.2 °F 22% 30.39 in 10.0 mi East 3.5 mph - N/A   Clear
8:55 PM 46.4 °F - 17.6 °F 32% 30.39 in 10.0 mi Calm Calm - N/A   Clear
9:15 PM 46.4 °F 45.2 °F 17.6 °F 32% 30.40 in 10.0 mi East 3.5 mph - N/A   Clear
9:35 PM 46.4 °F 45.2 °F 17.6 °F 32% 30.40 in 10.0 mi ENE 3.5 mph - N/A   Clear
9:55 PM 46.4 °F 45.2 °F 17.6 °F 32% 30.41 in 10.0 mi ENE 3.5 mph - N/A   Clear
10:15 PM 44.6 °F 43.1 °F 19.4 °F 37% 30.41 in 10.0 mi ENE 3.5 mph - N/A   Clear
10:35 PM 42.8 °F - 21.2 °F 42% 30.41 in 10.0 mi Calm Calm - N/A   Clear
10:55 PM 42.8 °F - 21.2 °F 42% 30.40 in 10.0 mi Calm Calm - N/A   Clear
11:15 PM 41.0 °F - 24.8 °F 53% 30.39 in 10.0 mi Calm Calm - N/A   Clear
11:35 PM 42.8 °F 41.1 °F 19.4 °F 39% 30.39 in 10.0 mi ENE 3.5 mph - N/A   Clear
11:55 PM 42.8 °F 41.1 °F 17.6 °F 36% 30.39 in 10.0 mi ENE 3.5 mph - N/A   Clear